Location: Cactus School
(34.5700°N, 118.0931°W)
Time: 18:02:49
(UTC-08:00)

Tiros 1 - Pass Details

Date: 25 November 2019
Orbit: 630 x 664 km, 48.4° (Epoch: 12 December)

Event Time Altitude Azimuth Distance (km) Brightness Sun altitude
Rises 11:11:07 0° 237° (WSW) 2,919 10.8 34.2°
Reaches altitude 10° 11:13:27 10° 240° (WSW) 2,009 10.1 34.3°
Maximum altitude 11:18:04 70° 324° (NW) 671 7.6 34.4°
Drops below altitude 10° 11:22:40 10° 48° (NE) 2,007 9.5 34.5°
Sets 11:25:00 0° 51° (NE) 2,916 10.2 34.5°
